Location: Hengforden
(52.3167°N, 6.1333°E)
Time: 16:37:30
(UTC+00:00)

Cosmos 2292 Rocket - Pass Details

Date: 14 June 2025
Orbit: 370 x 1262 km, 83.0° (Epoch: 20 July)

Event Time Altitude Azimuth Distance (km) Brightness Sun altitude
Exits shadow 22:20:06 24° 176° (S) 848 3.7 -12.6°
Maximum altitude 22:21:43 68° 99° (E) 409 2.5 -12.7°
Drops below altitude 10° 22:24:37 10° 15° (NNE) 1,395 6.3 -12.8°
Sets 22:26:38 0° 12° (NNE) 2,284 7.6 -12.9°
